Weather History for Chrysopouli, Greece

Change the Weather History Date:

Friday, October 4, 2013

  Actual Average Record
Temperature  
Mean Temperature 49 °F -  
Max Temperature 57 °F 72 °F 80 °F (1999)
Min Temperature 41 °F 56 °F 41 °F (2013)
Degree Days  
Heating Degree Days 16    
Moisture  
Dew Point 34 °F    
Average Humidity 55    
Maximum Humidity 87    
Minimum Humidity 41    
Precipitation  
Precipitation 0.00 in - - ()
Sea Level Pressure  
Sea Level Pressure 30.37 in    
Wind  
Wind Speed 7 mph ()    
Max Wind Speed 12 mph    
Max Gust Speed -    
Visibility 6.2 miles    
Events      
Averages and records for this station are not official NWS values.
T = Trace of Precipitation, MM = Missing Value Source: Averaged Metar Reports

Daily Weather History Graph

Daily Weather History Graph

Search for Another Location

Airport:

Trip Planner

Search our weather history database for the weather conditions in past years. The results will help you decide how hot, cold, wet, or windy it might be!

Date:

Astronomy

Oct. 04, 2013 Rise Set
Actual Time 7:21 AM EEST 6:58 PM EEST
Civil Twilight 6:53 AM EEST 7:25 PM EEST
Nautical Twilight 6:21 AM EEST 7:57 PM EEST
Astronomical Twilight 5:49 AM EEST 8:29 PM EEST
Moon 6:36 AM EEST (10/4) 6:29 PM EEST (10/4)
Length of Visible Light 12h 32m
Length of Day
11h 37m
Waning Crescent, 1% of the Moon is Illuminated
Oct 4
Waning Crescent
Oct 5
New
Oct 12
First Quarter
Oct 19
Full
Oct 27
Last Quarter

Hourly Weather History & Observations

Time (EEST) Temp. Windchill Dew Point Humidity Pressure Visibility Wind Dir Wind Speed Gust Speed Precip Events Conditions
12:50 AM 50.0 °F - 35.6 °F 58% 30.33 in 6.2 mi East 8.1 mph - N/A   Mostly Cloudy
2:50 AM 50.0 °F - 33.8 °F 54% 30.33 in 6.2 mi East 5.8 mph - N/A   Scattered Clouds
4:50 AM 50.0 °F - 33.8 °F 54% 30.36 in 6.2 mi East 10.4 mph - N/A   Scattered Clouds
5:20 AM 50.0 °F - 35.6 °F 58% 30.33 in 6.2 mi East 5.8 mph - N/A   Scattered Clouds
5:50 AM 44.6 °F 41.4 °F 35.6 °F 71% 30.36 in 6.2 mi NE 5.8 mph - N/A   Partly Cloudy
6:20 AM 44.6 °F 42.2 °F 35.6 °F 71% 30.36 in 6.2 mi NE 4.6 mph - N/A   Partly Cloudy
7:20 AM 41.0 °F 38.0 °F 35.6 °F 81% 30.36 in 6.2 mi ENE 4.6 mph - N/A   Scattered Clouds
7:50 AM 41.0 °F - 37.4 °F 87% 30.36 in 6.2 mi Calm Calm - N/A   Scattered Clouds
8:20 AM 41.0 °F 38.0 °F 37.4 °F 87% 30.39 in 6.2 mi NE 4.6 mph - N/A   Scattered Clouds
8:50 AM 44.6 °F 41.4 °F 37.4 °F 76% 30.39 in 6.2 mi NE 5.8 mph - N/A   Scattered Clouds
9:20 AM 46.4 °F 41.5 °F 37.4 °F 71% 30.39 in 6.2 mi ENE 10.4 mph - N/A   Scattered Clouds
9:50 AM 48.2 °F - 35.6 °F 62% 30.39 in 6.2 mi ENE 10.4 mph - N/A   Scattered Clouds
10:20 AM 48.2 °F - 35.6 °F 62% 30.39 in 6.2 mi ENE 9.2 mph - N/A   Scattered Clouds
10:50 AM 51.8 °F - 32.0 °F 47% 30.39 in 6.2 mi ENE 11.5 mph - N/A   Scattered Clouds
11:20 AM 51.8 °F - 32.0 °F 47% 30.39 in 6.2 mi East 5.8 mph - N/A   Scattered Clouds
11:50 AM 51.8 °F - 32.0 °F 47% 30.39 in 6.2 mi East 6.9 mph - N/A   Scattered Clouds
12:20 PM 51.8 °F - 32.0 °F 47% 30.39 in 6.2 mi ESE 8.1 mph - N/A   Scattered Clouds
12:50 PM 51.8 °F - 32.0 °F 47% 30.39 in 6.2 mi SSE 10.4 mph - N/A   Scattered Clouds
1:20 PM 51.8 °F - 32.0 °F 47% 30.39 in 6.2 mi ESE 8.1 mph - N/A   Scattered Clouds
1:50 PM 55.4 °F - 32.0 °F 41% 30.39 in 6.2 mi SE 11.5 mph - N/A   Partly Cloudy
2:20 PM 57.2 °F - 33.8 °F 41% 30.36 in 6.2 mi SE 10.4 mph - N/A   Partly Cloudy
2:50 PM 57.2 °F - 33.8 °F 41% 30.36 in 6.2 mi SE 9.2 mph - N/A   Scattered Clouds
3:20 PM 57.2 °F - 33.8 °F 41% 30.36 in 6.2 mi SE 9.2 mph - N/A   Scattered Clouds
3:50 PM 57.2 °F - 35.6 °F 44% 30.36 in 6.2 mi SE 10.4 mph - N/A   Scattered Clouds
4:20 PM 57.2 °F - 35.6 °F 44% 30.36 in 6.2 mi SE 9.2 mph - N/A   Scattered Clouds
4:50 PM 57.2 °F - 35.6 °F 44% 30.36 in 6.2 mi SE 10.4 mph - N/A   Partly Cloudy
5:20 PM 57.2 °F - 35.6 °F 44% 30.36 in 6.2 mi SSE 8.1 mph - N/A   Partly Cloudy
5:50 PM 55.4 °F - 33.8 °F 44% 30.36 in 6.2 mi SE 8.1 mph - N/A   Scattered Clouds
6:20 PM 55.4 °F - 33.8 °F 44% 30.36 in 6.2 mi East 6.9 mph - N/A   Scattered Clouds
6:50 PM 53.6 °F - 33.8 °F 47% 30.36 in 6.2 mi East 5.8 mph - N/A   Partly Cloudy
7:20 PM 50.0 °F - 33.8 °F 54% 30.36 in 6.2 mi ENE 8.1 mph - N/A   Scattered Clouds
7:50 PM 50.0 °F - 33.8 °F 54% 30.36 in 6.2 mi ENE 9.2 mph - N/A   Scattered Clouds
8:20 PM 50.0 °F - 33.8 °F 54% 30.39 in 6.2 mi ENE 8.1 mph - N/A   Scattered Clouds
8:50 PM 50.0 °F - 33.8 °F 54% 30.39 in 6.2 mi ENE 8.1 mph - N/A   Scattered Clouds